FW3243 Weather Reports


time (UTC)temp
C
wind
direction
speed
KPH
gust
KPH
rain 1hr
cm
rain 24hr
cm
rain mn
cm
humidity
%
barometer
mb
20260906140121 20 80 1.6 4.8 0.00 0.03 0.03 88 1021.7
20260906135221 20 74 3.2 9.7 0.00 0.03 0.03 87 1021.8
20260906133421 21 72 0.0 4.8 0.00 0.03 0.03 89 1021.7
20260906132521 20 58 1.6 3.2 0.00 0.03 0.03 91 1021.7
20260906131621 20 19 0.0 1.6 0.00 0.03 0.03 94 1021.6
20260906130721 19 6 0.0 1.6 0.00 0.03 0.03 96 1021.5
20260906125821 18 0 0.0 0.0 0.00 0.03 0.03 96 1021.5
20260906124021 18 0 0.0 0.0 0.00 0.03 0.03 96 1020.9
20260906123121 17 0 0.0 0.0 0.00 0.03 0.03 96 1020.9
20260906121321 16 0 0.0 0.0 0.00 0.03 0.03 96 1020.9
20260906120421 16 0 0.0 0.0 0.00 0.03 0.03 96 1020.7
20260906115521 16 0 0.0 0.0 0.00 0.03 0.03 96 1020.5
20260906113721 16 0 0.0 0.0 0.00 0.03 0.03 96 1020.4
20260906111021 16 0 0.0 0.0 0.00 0.03 0.03 96 1019.9
20260906110121 16 0 0.0 0.0 0.00 0.03 0.03 96 1019.9
20260906105221 17 0 0.0 0.0 0.00 0.03 0.03 96 1020.1
20260906104321 17 64 0.0 1.6 0.00 0.03 0.03 96 1020.0
20260906103421 16 0 0.0 0.0 0.00 0.03 0.03 96 1020.1
20260906101621 16 0 0.0 0.0 0.00 0.03 0.03 96 1020.1
20260906100721 16 0 0.0 0.0 0.00 0.03 0.03 96 1020.0
20260906095821 16 0 0.0 0.0 0.03 0.03 0.03 96 1019.8
20260906094021 16 0 0.0 0.0 0.03 0.03 0.03 96 1019.7
20260906093121 16 0 0.0 0.0 0.03 0.03 0.03 96 1019.9
20260906092221 16 13 0.0 1.6 0.03 0.03 0.03 96 1019.7
20260906091321 16 6 0.0 3.2 0.03 0.03 0.03 96 1019.7
20260906090421 16 0 0.0 0.0 0.00 0.00 0.00 96 1019.7
20260906085521 16 24 0.0 3.2 0.00 0.00 0.00 96 1019.6
20260906084621 16 3 0.0 3.2 0.00 0.00 0.00 96 1019.7
20260906083721 16 9 0.0 3.2 0.00 0.00 0.00 96 1019.6
20260906082821 17 0 0.0 0.0 0.00 0.00 0.00 96 1019.7
20260906081921 17 0 0.0 0.0 0.00 0.00 0.00 96 1019.6
20260906081021 17 0 0.0 0.0 0.00 0.00 0.00 97 1019.6
20260906080121 17 0 0.0 0.0 0.00 0.00 0.00 97 1019.6
20260906075221 16 0 0.0 0.0 0.00 0.00 0.00 97 1019.5
20260906073421 16 0 0.0 0.0 0.00 0.00 0.00 96 1019.5
20260906072521 16 0 0.0 0.0 0.00 0.00 0.00 96 1019.4
20260906070721 16 0 0.0 0.0 0.00 0.00 0.00 96 1019.2
20260906065821 16 0 0.0 0.0 0.00 0.00 0.00 96 1019.2
20260906064921 16 0 0.0 0.0 0.00 0.00 0.00 96 1019.3
20260906064021 16 0 0.0 0.0 0.00 0.00 0.00 96 1019.4
20260906063121 16 0 0.0 0.0 0.00 0.00 0.00 96 1019.5
20260906062221 16 0 0.0 0.0 0.00 0.00 0.00 96 1019.4
20260906061321 16 0 0.0 0.0 0.00 0.00 0.00 96 1019.3
20260906060421 16 0 0.0 0.0 0.00 0.00 0.00 95 1019.3
20260906055521 16 0 0.0 0.0 0.00 0.00 0.00 96 1019.3
20260906054621 16 0 0.0 0.0 0.00 0.00 0.00 95 1019.1
20260906051921 16 0 0.0 0.0 0.00 0.00 0.00 95 1019.2
20260906050121 16 0 0.0 0.0 0.00 0.00 0.00 95 1019.0
20260906045220 17 0 0.0 0.0 0.00 0.00 0.00 95 1019.0
20260906044320 17 0 0.0 0.0 0.00 0.00 0.00 95 1019.1
20260906043420 17 0 0.0 0.0 0.00 0.00 0.00 95 1019.0
20260906042521 17 0 0.0 0.0 0.00 0.00 0.00 95 1019.1
20260906041620 17 0 0.0 0.0 0.00 0.00 0.00 94 1018.9
20260906040720 17 0 0.0 0.0 0.00 0.00 0.00 94 1018.8
20260906035821 17 0 0.0 0.0 0.00 0.00 0.00 94 1018.6
20260906034921 17 0 0.0 0.0 0.00 0.00 0.00 94 1018.7
20260906034021 17 0 0.0 0.0 0.00 0.00 0.00 93 1018.7
20260906033120 17 0 0.0 0.0 0.00 0.00 0.00 93 1018.7
20260906032220 17 0 0.0 0.0 0.00 0.00 0.00 93 1018.6
20260906031320 17 0 0.0 0.0 0.00 0.00 0.00 93 1018.6
20260906030421 17 0 0.0 0.0 0.00 0.00 0.00 93 1018.7
20260906025520 18 0 0.0 0.0 0.00 0.00 0.00 92 1018.8
20260906024620 18 0 0.0 0.0 0.00 0.00 0.00 92 1018.8
20260906023720 18 0 0.0 0.0 0.00 0.00 0.00 93 1018.7
20260906022820 18 58 0.0 1.6 0.00 0.00 0.00 93 1018.7
20260906021921 18 42 1.6 4.8 0.00 0.00 0.00 94 1018.5
20260906020120 18 0 0.0 0.0 0.00 0.00 0.00 95 1018.5
20260906015221 18 0 0.0 0.0 0.00 0.00 0.00 94 1018.5
20260906014320 18 0 0.0 0.0 0.00 0.00 0.00 94 1018.4
20260906012520 19 0 0.0 0.0 0.00 0.00 0.00 92 1018.3
20260906011620 19 0 0.0 0.0 0.00 0.00 0.00 92 1018.4
20260906010720 20 0 0.0 0.0 0.00 0.00 0.00 91 1018.3
20260906005820 20 0 0.0 0.0 0.00 0.00 0.00 91 1018.3
20260906004920 20 37 0.0 4.8 0.00 0.00 0.00 90 1018.3
20260906004020 21 25 1.6 4.8 0.00 0.00 0.00 90 1018.2
20260906003120 21 34 1.6 8.0 0.00 0.00 0.00 89 1018.3
20260906001320 21 23 1.6 4.8 0.00 0.00 0.00 89 1018.4
20260906000420 21 6 3.2 8.0 0.00 0.00 0.00 88 1018.4
20260905234620 21 344 0.0 3.2 0.00 0.00 0.00 90 1018.4
20260905233720 21 333 0.0 1.6 0.00 0.00 0.00 90 1018.5
20260905232820 21 3 1.6 6.4 0.00 0.00 0.00 90 1018.4
20260905231920 21 22 3.2 11.3 0.00 0.00 0.00 90 1018.3
20260905231020 21 11 3.2 8.0 0.00 0.00 0.00 90 1018.3
20260905230120 21 28 4.8 9.7 0.00 0.00 0.00 90 1018.3
20260905225220 21 13 4.8 11.3 0.00 0.00 0.00 91 1018.4
20260905224320 21 22 4.8 11.3 0.00 0.00 0.00 90 1018.3
20260905222520 22 41 6.4 14.5 0.00 0.00 0.00 90 1018.0
20260905220720 22 47 4.8 12.9 0.00 0.00 0.00 91 1017.9
20260905215820 22 7 4.8 11.3 0.00 0.00 0.00 91 1017.9
20260905214920 22 31 8.0 16.1 0.00 0.00 0.00 91 1017.7
20260905211320 22 15 4.8 9.7 0.00 0.00 0.00 90 1017.8
20260905210420 22 31 6.4 12.9 0.00 0.00 0.00 90 1017.8
20260905205520 22 17 4.8 12.9 0.00 0.00 0.00 90 1017.8
20260905204620 22 16 6.4 12.9 0.00 0.00 0.00 90 1017.9
20260905203720 22 2 4.8 11.3 0.00 0.00 0.00 90 1017.8
20260905202820 22 15 4.8 11.3 0.00 0.00 0.00 90 1017.6
20260905201920 22 352 4.8 11.3 0.00 0.00 0.00 90 1017.7
20260905201020 22 2 4.8 11.3 0.00 0.00 0.00 90 1017.7
20260905200120 22 9 4.8 12.9 0.00 0.00 0.00 90 1017.6
20260905195220 22 11 6.4 12.9 0.00 0.00 0.00 90 1017.7
20260905194320 22 23 6.4 14.5 0.00 0.00 0.00 90 1017.8
20260905193420 22 34 6.4 14.5 0.00 0.00 0.00 90 1017.8
20260905185820 23 27 6.4 12.9 0.00 0.00 0.00 90 1017.7
20260905184920 23 32 8.0 17.7 0.00 0.00 0.00 90 1017.6
20260905184020 23 21 6.4 12.9 0.00 0.00 0.00 91 1017.7
20260905182220 23 358 4.8 9.7 0.00 0.00 0.00 90 1017.7
20260905175520 23 357 6.4 12.9 0.00 0.00 0.00 89 1017.6
20260905174620 23 332 3.2 9.7 0.00 0.00 0.00 89 1017.6
20260905173720 23 342 4.8 14.5 0.00 0.00 0.00 88 1017.6
20260905172820 24 345 4.8 9.7 0.00 0.00 0.00 87 1017.6
20260905171920 24 350 4.8 12.9 0.00 0.00 0.00 87 1017.5
20260905171020 24 344 4.8 9.7 0.00 0.00 0.00 87 1017.7
20260905170120 24 341 4.8 11.3 0.00 0.00 0.00 86 1017.6
20260905165220 24 16 3.2 11.3 0.00 0.00 0.00 88 1017.7
20260905164320 23 349 3.2 9.7 0.00 0.00 0.00 89 1017.6
20260905163420 23 352 3.2 9.7 0.00 0.00 0.00 89 1017.7
20260905161620 23 1 4.8 12.9 0.00 0.00 0.00 88 1017.7
20260905160720 23 339 4.8 12.9 0.00 0.00 0.00 89 1017.8
20260905155820 23 15 4.8 14.5 0.00 0.00 0.00 88 1017.6
20260905154020 23 9 3.2 9.7 0.00 0.00 0.00 90 1017.5
20260905152220 23 5 4.8 11.3 0.00 0.00 0.00 89 1017.4
20260905151320 23 358 4.8 9.7 0.00 0.00 0.00 90 1017.3
20260905150420 23 343 4.8 12.9 0.00 0.00 0.00 90 1017.2
20260905145520 22 14 4.8 12.9 0.00 0.00 0.00 92 1017.1
20260905144620 22 27 6.4 14.5 0.00 0.03 0.00 92 1017.1
20260905143720 22 8 4.8 17.7 0.00 0.03 0.00 92 1017.0
20260905142820 22 1 3.2 8.0 0.00 0.05 0.00 93 1016.8
20260905141920 22 9 6.4 12.9 0.00 0.23 0.00 93 1016.7
20260905141020 22 17 1.6 8.0 0.00 0.23 0.00 94 1016.6